Starlink 11127

operational
NORAD ID: 60119 Int'l Des: 2024-118 Owner: SPXS Country: US Constellation: starlink
LEOCIRCULAR

关于 Starlink 11127

正在加载描述...

实时位置

正在加载3D地球...

即将过境

高度历史

Altitude vs Time

uPlot chart will show altitude changes over time

两行轨道根数

1 60119U 24118G 25351.04683206 .00039746 00000-0 33168-3 0 9991
2 60119 53.1579 268.6354 0001179 77.7558 282.3592 15.69686063 85015
Epoch: Dec 17, 2025 • Age: 21 hours

当前状态

高度 364.2 km
速度 7.69 km/s
星下点 -16.35°S, 171.61°W
发射日期 Jun 24, 2024
运行时间 1.4 years
类型 internet

技术详情

分类 Payload
质量 960.00 kg
干质量 910.00 kg
总质量 960.00 kg
长度 0.30 m
直径 4.10 m
跨度 29.00 m
形状 Box + pan
制造商 SPXS
平台类型 Starlink V2MD
阶段状态 In Orbit
所有者/国家 SPXS/US

大型星座

Loading constellations...